Hanford, CA

8:23 PM PST on February 27, 2017 (GMT -0800)
Hanford Municipal

Weather History for KHJO - January, 2013

Change the Weather History Date:

Friday, January 4, 2013

  Actual Average Record
Temperature  
Mean Temperature 41 °F 44 °F  
Max Temperature 54 °F 53 °F 65 °F (2014)
Min Temperature 27 °F 36 °F 27 °F (2001)
Degree Days  
Heating Degree Days 24    
Month to date heating degree days 96  
Since 1 July heating degree days 1034  
Cooling Degree Days 0    
Month to date cooling degree days 0  
Year to date cooling degree days 0  
Moisture  
Dew Point 33 °F    
Average Humidity 80    
Maximum Humidity 100    
Minimum Humidity 59    
Precipitation  
Precipitation 0.00 in 0.10 in 0.55 in (2008)
Month to date precipitation 0.00 0.40  
Year to date precipitation 0.00 0.40  
Since 1 July precipitation 2.00  
Snow  
Snow 0.00 in - - ()
Month to date snowfall 0.0  
Since 1 July snowfall 0.0  
Snow Depth 0.00 in    
Sea Level Pressure  
Sea Level Pressure 30.28 in    
Wind  
Wind Speed 1 mph (ENE)    
Max Wind Speed 7 mph    
Max Gust Speed 8 mph    
Visibility 1 miles    
Events Fog    
T = Trace of Precipitation, MM = Missing Value Source: NWS Daily Summary

Daily Weather History Graph

Daily Weather History Graph

Search for Another Location

Airport or City:

Trip Planner

Search our weather history database for the weather conditions in past years. The results will help you decide how hot, cold, wet, or windy it might be!

Date:

Astronomy

Jan. 04, 2013 Rise Set
Actual Time 7:10 AM PST 4:57 PM PST
Civil Twilight 6:41 AM PST 5:25 PM PST
Nautical Twilight 6:09 AM PST 5:57 PM PST
Astronomical Twilight 5:38 AM PST 6:28 PM PST
Moon No Moon Rise 11:09 AM PST (1/4)
Length of Visible Light 10h 43m
Length of Day
9h 46m
Waning Gibbous, 54% of the Moon is Illuminated
Jan 4
Waning Gibbous
Jan 4
Last Quarter
Jan 11
New
Jan 18
First Quarter
Jan 26
Full

Hourly Weather History & Observations

Time (PST) Temp. Windchill Dew Point Humidity Pressure Visibility Wind Dir Wind Speed Gust Speed Precip Events Conditions
12:02 AM 32.0 °F - 30.2 °F 93% 30.29 in 1.8 mi Calm Calm - N/A   Clear
12:53 AM 32.0 °F - 30.0 °F 92% 30.30 in 1.5 mi Calm Calm - N/A   Clear
1:07 AM 30.2 °F - 28.4 °F 93% 30.28 in 0.5 mi Calm Calm - N/A Fog Light Freezing Fog
1:09 AM 30.2 °F - 28.4 °F 93% 30.28 in 0.2 mi Calm Calm - N/A Fog Light Freezing Fog
1:25 AM 28.4 °F 23.3 °F 28.4 °F 100% 30.28 in 0.5 mi ESE 4.6 mph - N/A Fog Light Freezing Fog
1:30 AM 28.4 °F 23.3 °F 28.4 °F 100% 30.28 in 0.2 mi ESE 4.6 mph - N/A Fog Light Freezing Fog
1:47 AM 30.2 °F - 28.4 °F 93% 30.28 in 0.2 mi Calm Calm - N/A Fog Light Freezing Fog
1:53 AM 30.9 °F - 28.9 °F 92% 30.29 in 0.2 mi Calm Calm - N/A Fog Light Freezing Fog
2:09 AM 30.2 °F - 28.4 °F 93% 30.28 in 0.2 mi Calm Calm - N/A Fog Light Freezing Fog
2:17 AM 30.2 °F - 28.4 °F 93% 30.28 in 0.2 mi Calm Calm - N/A Fog Light Freezing Fog
2:19 AM 30.2 °F - 28.4 °F 93% 30.28 in 0.5 mi Calm Calm - N/A Fog Light Freezing Fog
2:26 AM 30.2 °F 26.7 °F 28.4 °F 93% 30.28 in 1.8 mi West 3.5 mph - N/A   Mostly Cloudy
2:36 AM 30.2 °F 26.7 °F 28.4 °F 93% 30.28 in 2.0 mi West 3.5 mph - N/A   Partly Cloudy
2:53 AM 28.9 °F - 28.0 °F 96% 30.29 in 1.5 mi Calm Calm - N/A   Clear
3:30 AM 30.2 °F - 28.4 °F 93% 30.28 in 0.8 mi Calm Calm - N/A   Clear
3:39 AM 30.2 °F - 30.2 °F 100% 30.28 in 1.0 mi Calm Calm - N/A   Clear
3:44 AM 28.4 °F 22.2 °F 26.6 °F 93% 30.28 in 0.5 mi NE 5.8 mph - N/A Fog Light Freezing Fog
3:53 AM 28.9 °F 22.8 °F 27.0 °F 92% 30.29 in 0.8 mi NE 5.8 mph - N/A   Mist
4:00 AM 28.4 °F 23.3 °F 28.4 °F 100% 30.28 in 1.5 mi ENE 4.6 mph - N/A   Clear
4:15 AM 28.4 °F 21.2 °F 26.6 °F 93% 30.28 in 2.0 mi ENE 6.9 mph - N/A   Partly Cloudy
4:22 AM 28.4 °F 22.2 °F 26.6 °F 93% 30.28 in 1.0 mi East 5.8 mph - N/A   Mostly Cloudy
4:25 AM 28.4 °F 22.2 °F 26.6 °F 93% 30.28 in 0.8 mi ENE 5.8 mph - N/A   Mist
4:37 AM 28.4 °F 23.3 °F 26.6 °F 93% 30.28 in 0.2 mi East 4.6 mph - N/A Fog Light Freezing Fog
4:53 AM 28.0 °F - 27.0 °F 96% 30.29 in 0.2 mi Calm Calm - N/A Fog Light Freezing Fog
5:53 AM 28.9 °F - 27.0 °F 92% 30.30 in 0.2 mi Calm Calm - N/A Fog Light Freezing Fog
6:53 AM 28.0 °F - 26.1 °F 92% 30.32 in 0.2 mi Calm Calm - N/A Fog Light Freezing Fog
7:53 AM 28.0 °F - 27.0 °F 96% 30.33 in 0.2 mi Calm Calm - N/A Fog Light Freezing Fog
8:53 AM 28.9 °F - 28.9 °F 100% 30.35 in 0.2 mi Calm Calm - N/A Fog Light Freezing Fog
9:53 AM 32.0 °F - 32.0 °F 100% 30.36 in 0.2 mi Calm Calm - N/A Fog Fog
10:53 AM 35.1 °F - 35.1 °F 100% 30.35 in 0.2 mi Calm Calm - N/A Fog Fog
11:37 AM 37.4 °F - 37.4 °F 100% 30.32 in 0.2 mi Calm Calm - N/A Fog Fog
11:51 AM 39.2 °F - 37.4 °F 93% 30.30 in 0.5 mi Calm Calm - N/A Fog Fog
11:53 AM 39.0 °F - 37.9 °F 96% 30.31 in 0.5 mi Calm Calm - N/A Fog Fog
12:02 PM 39.2 °F - 37.4 °F 93% 30.30 in 0.2 mi Calm Calm - N/A Fog Fog
12:10 PM 39.2 °F - 39.2 °F 100% 30.29 in 0.8 mi Calm Calm - N/A   Overcast
12:17 PM 41.0 °F - 39.2 °F 93% 30.29 in 1.2 mi Calm Calm - N/A   Mostly Cloudy
12:21 PM 41.0 °F - 39.2 °F 93% 30.28 in 1.5 mi Calm Calm - N/A   Scattered Clouds
12:36 PM 42.8 °F 40.1 °F 39.2 °F 87% 30.27 in 2.0 mi ESE 4.6 mph - N/A   Clear
12:53 PM 45.0 °F 43.5 °F 41.0 °F 86% 30.28 in 2.5 mi SE 3.5 mph - N/A   Clear
1:28 PM 48.2 °F - 41.0 °F 76% 30.25 in 3.0 mi Calm Calm - N/A   Haze
1:53 PM 51.1 °F - 41.0 °F 68% 30.25 in 3.0 mi Calm Calm - N/A   Haze
2:53 PM 53.1 °F - 39.9 °F 61% 30.25 in 3.0 mi Calm Calm - N/A   Haze
3:53 PM 52.0 °F - 41.0 °F 66% 30.24 in 3.0 mi Calm Calm - N/A   Haze
4:49 PM 50.0 °F - 41.0 °F 71% 30.22 in 2.5 mi Calm Calm - N/A   Haze
4:53 PM 48.9 °F - 41.0 °F 74% 30.23 in 2.5 mi Calm Calm - N/A   Haze
5:19 PM 44.6 °F - 39.2 °F 81% 30.22 in 3.0 mi Calm Calm - N/A   Haze
5:53 PM 43.0 °F - 37.0 °F 80% 30.24 in 3.0 mi Calm Calm - N/A   Haze
6:09 PM 41.0 °F - 35.6 °F 81% 30.23 in 2.5 mi Calm Calm - N/A   Haze
6:53 PM 39.9 °F - 37.9 °F 93% 30.24 in 2.0 mi Calm Calm - N/A   Clear
7:03 PM 37.4 °F - 37.4 °F 100% 30.23 in 1.2 mi Calm Calm - N/A   Clear
7:53 PM 39.0 °F - 36.0 °F 89% 30.26 in 1.2 mi Calm Calm - N/A   Clear
8:31 PM 37.4 °F 34.9 °F 35.6 °F 93% 30.25 in 0.5 mi ENE 3.5 mph - N/A Fog Fog
8:44 PM 35.6 °F 32.8 °F 35.6 °F 100% 30.25 in 1.0 mi NE 3.5 mph - N/A   Clear
8:53 PM 36.0 °F - 35.1 °F 97% 30.27 in 1.0 mi Calm Calm - N/A   Clear
9:37 PM 35.6 °F 31.7 °F 33.8 °F 93% 30.26 in 0.2 mi ENE 4.6 mph - N/A Fog Fog
9:53 PM 35.1 °F 32.2 °F 33.1 °F 92% 30.28 in 0.2 mi ENE 3.5 mph - N/A Fog Fog
10:03 PM 35.6 °F 31.7 °F 35.6 °F 100% 30.27 in 0.8 mi ENE 4.6 mph - N/A   Clear
10:53 PM 36.0 °F 32.1 °F 35.1 °F 97% 30.29 in 0.8 mi NE 4.6 mph - N/A   Clear
11:19 PM 35.6 °F - 33.8 °F 93% 30.27 in 0.2 mi Calm Calm - N/A Fog Fog
11:29 PM 35.6 °F - 33.8 °F 93% 30.27 in 0.8 mi Calm Calm - N/A   Clear
11:49 PM 35.6 °F 32.8 °F 33.8 °F 93% 30.27 in 0.2 mi NE 3.5 mph - N/A Fog Fog
11:53 PM 35.1 °F 32.2 °F 33.1 °F 92% 30.28 in 0.5 mi ENE 3.5 mph - N/A Fog Fog